Starlink 33601

operational
NORAD ID: 62768 Int'l Des: 2025-015 Owner: SPXS Country: US Constellation: starlink
LEOCIRCULAR

About Starlink 33601

Description loading...

Live Position

Loading 3D Globe...

Upcoming Passes

Altitude History

Altitude vs Time

uPlot chart will show altitude changes over time

Two-Line Element Set

1 62768U 25015L 25351.27266803 .00022795 00000-0 77932-3 0 9998
2 62768 53.1611 345.2104 0001373 85.4845 274.6312 15.30202507 51865
Epoch: Dec 17, 2025 • Age: 26 hours

Current Status

Altitude 489.7 km
Velocity 7.62 km/s
Sub-Earth Point -41.64°S, 15.34°W
Launch Date Jan 21, 2025
Age 0.9 years
Type internet

Technical Details

Classification Payload
Mass 575.00 kg
Dry Mass 530.00 kg
Total Mass 575.00 kg
Length 0.30 m
Diameter 4.10 m
Span 29.00 m
Shape Box + pan
Manufacturer SPXS
Bus Type Starlink V2MO
Phase Status In Orbit
Owner/State SPXS/US

Large Constellations

Loading constellations...